Weather History for KRDR - July, 2013

Change the Weather History Date:

Friday, July 26, 2013

  Actual Average Record
Temperature  
Mean Temperature 58 °F -  
Max Temperature 68 °F 79 °F 90 °F (2010)
Min Temperature 46 °F 57 °F 46 °F (2013)
Degree Days  
Heating Degree Days 7    
Growing Degree Days 8 (Base 50)    
Moisture  
Dew Point 51 °F    
Average Humidity 83    
Maximum Humidity 100    
Minimum Humidity 43    
Precipitation  
Precipitation 0.02 in - - ()
Sea Level Pressure  
Sea Level Pressure 30.11 in    
Wind  
Wind Speed 17 mph (NNE)    
Max Wind Speed 23 mph    
Max Gust Speed 29 mph    
Visibility 10 miles    
Events Rain    
Averages and records for this station are not official NWS values.
T = Trace of Precipitation, MM = Missing Value Source: NWS Daily Summary

Daily Weather History Graph

Daily Weather History Graph

Search for Another Location

Airport or City:

Trip Planner

Search our weather history database for the weather conditions in past years. The results will help you decide how hot, cold, wet, or windy it might be!

Date:

Astronomy

Jul. 26, 2013 Rise Set
Actual Time 5:58 AM CDT 9:12 PM CDT
Civil Twilight 5:21 AM CDT 9:49 PM CDT
Nautical Twilight 4:32 AM CDT 10:38 PM CDT
Astronomical Twilight 3:30 AM CDT 11:39 PM CDT
Moon 10:59 PM CDT (7/26) 11:02 AM CDT (7/26)
Length of Visible Light 16h 28m
Length of Day
15h 14m
Waning Gibbous, 80% of the Moon is Illuminated
Jul 26
Waning Gibbous
Jul 29
Last Quarter
Aug 6
New
Aug 14
First Quarter
Aug 20
Full

Hourly Weather History & Observations

Time (CDT) Temp. Dew Point Humidity Pressure Visibility Wind Dir Wind Speed Gust Speed Precip Events Conditions
12:02 AM 57.2 °F 53.6 °F 88% 30.01 in 10.0 mi North 18.4 mph - N/A   Overcast
12:12 AM 57.2 °F 53.6 °F 88% 30.01 in 10.0 mi North 16.1 mph - N/A   Overcast
12:48 AM 55.4 °F 55.4 °F 100% 30.02 in 9.0 mi North 18.4 mph 25.3 mph N/A Rain Light Rain
12:58 AM 55.9 °F 55.0 °F 97% 30.04 in 10.0 mi North 18.4 mph 25.3 mph 0.00 in   Light Drizzle
12:59 AM 55.4 °F 55.4 °F 100% 30.02 in 10.0 mi North 20.7 mph 25.3 mph N/A   Overcast
1:11 AM 55.4 °F 55.4 °F 100% 30.02 in 10.0 mi North 15.0 mph 27.6 mph N/A Rain Light Rain
1:22 AM 55.4 °F 55.4 °F 100% 30.02 in 10.0 mi North 19.6 mph 26.5 mph N/A   Overcast
1:31 AM 55.4 °F 55.4 °F 100% 30.03 in 10.0 mi North 17.3 mph 23.0 mph N/A   Light Drizzle
1:46 AM 55.4 °F 55.4 °F 100% 30.03 in 10.0 mi North 18.4 mph 25.3 mph N/A   Overcast
1:58 AM 55.2 °F 55.0 °F 99% 30.04 in 10.0 mi North 18.4 mph 28.8 mph 0.00 in   Overcast
1:59 AM 55.4 °F 55.4 °F 100% 30.03 in 10.0 mi North 17.3 mph 28.8 mph N/A   Light Drizzle
2:09 AM 55.4 °F 55.4 °F 100% 30.04 in 9.0 mi North 19.6 mph 26.5 mph N/A Rain Light Rain
2:14 AM 55.4 °F 55.4 °F 100% 30.04 in 10.0 mi North 20.7 mph 26.5 mph N/A Rain Light Rain
2:16 AM 55.4 °F 55.4 °F 100% 30.04 in 10.0 mi North 18.4 mph 26.5 mph N/A   Overcast
2:19 AM 55.4 °F 55.4 °F 100% 30.04 in 10.0 mi North 16.1 mph 26.5 mph N/A Rain Light Rain
2:20 AM 55.4 °F 55.4 °F 100% 30.04 in 9.0 mi North 15.0 mph 26.5 mph N/A   Overcast
2:22 AM 55.4 °F 55.4 °F 100% 30.04 in 8.0 mi NNE 18.4 mph 26.5 mph N/A   Light Drizzle
2:32 AM 55.4 °F 55.4 °F 100% 30.04 in 9.0 mi North 20.7 mph 26.5 mph N/A Rain Light Rain
2:42 AM 55.4 °F 53.6 °F 94% 30.05 in 6.0 mi NNE 21.9 mph 27.6 mph N/A Rain Light Rain
2:47 AM 55.4 °F 53.6 °F 94% 30.05 in 5.0 mi NNE 17.3 mph 26.5 mph N/A Rain Light Rain
2:57 AM 53.6 °F 53.6 °F 100% 30.05 in 6.0 mi North 18.4 mph - N/A Rain Light Rain
2:58 AM 53.6 °F 53.6 °F 100% 30.06 in 6.0 mi North 18.4 mph - 0.02 in Rain Light Rain
3:03 AM 53.6 °F 53.6 °F 100% 30.05 in 10.0 mi North 19.6 mph 25.3 mph N/A Rain Light Rain
3:04 AM 53.6 °F 53.6 °F 100% 30.05 in 10.0 mi North 20.7 mph 25.3 mph N/A   Overcast
3:24 AM 53.6 °F 53.6 °F 100% 30.06 in 10.0 mi NNE 17.3 mph 23.0 mph N/A   Overcast
3:58 AM 53.6 °F 52.2 °F 95% 30.10 in 10.0 mi NNE 13.8 mph 23.0 mph 0.00 in   Partly Cloudy
4:58 AM 53.4 °F 50.9 °F 91% 30.12 in 10.0 mi North 13.8 mph 20.7 mph N/A   Clear
5:58 AM 53.1 °F 51.3 °F 94% 30.14 in 10.0 mi North 12.7 mph 20.7 mph N/A   Clear
6:58 AM 53.6 °F 51.4 °F 92% 30.15 in 10.0 mi North 12.7 mph - N/A   Clear
7:58 AM 55.6 °F 50.2 °F 82% 30.16 in 10.0 mi North 10.4 mph 19.6 mph N/A   Clear
8:58 AM 57.7 °F 50.0 °F 75% 30.19 in 10.0 mi North 12.7 mph - N/A   Clear
9:58 AM 60.6 °F 50.4 °F 69% 30.20 in 10.0 mi North 13.8 mph - N/A   Clear
10:58 AM 62.6 °F 48.4 °F 60% 30.24 in 10.0 mi North 19.6 mph - N/A   Clear
11:58 AM 64.4 °F 48.0 °F 55% 30.23 in 10.0 mi NNE 19.6 mph 25.3 mph N/A   Scattered Clouds
12:58 PM 65.7 °F 46.9 °F 51% 30.22 in 10.0 mi NNE 17.3 mph 25.3 mph N/A   Scattered Clouds
1:58 PM 66.4 °F 45.1 °F 46% 30.22 in 10.0 mi NE 23.0 mph - N/A   Scattered Clouds
2:58 PM 66.6 °F 46.2 °F 48% 30.22 in 10.0 mi NNE 20.7 mph 25.3 mph N/A   Scattered Clouds
3:21 PM 68.0 °F 44.6 °F 43% 30.20 in 10.0 mi NE 18.4 mph 26.5 mph N/A   Mostly Cloudy
3:58 PM 66.0 °F 46.6 °F 49% 30.22 in 10.0 mi North 16.1 mph 23.0 mph N/A   Mostly Cloudy
4:58 PM 65.8 °F 44.4 °F 46% 30.22 in 10.0 mi NNE 13.8 mph - N/A   Scattered Clouds
5:58 PM 66.0 °F 43.7 °F 44% 30.22 in 10.0 mi NE 17.3 mph 23.0 mph N/A   Partly Cloudy
6:58 PM 64.6 °F 45.0 °F 49% 30.21 in 10.0 mi NNE 13.8 mph - N/A   Overcast
7:58 PM 63.0 °F 46.4 °F 55% 30.22 in 10.0 mi NNE 16.1 mph 21.9 mph N/A   Partly Cloudy
8:58 PM 59.0 °F 45.0 °F 60% 30.23 in 10.0 mi NNE 10.4 mph - N/A   Partly Cloudy
9:58 PM 53.8 °F 46.6 °F 77% 30.25 in 10.0 mi NNE 5.8 mph - N/A   Overcast
10:58 PM 48.9 °F 45.1 °F 87% 30.26 in 10.0 mi Variable 5.8 mph - N/A   Clear
11:58 PM 46.9 °F 44.8 °F 92% 30.24 in 10.0 mi NNW 4.6 mph - N/A   Scattered Clouds